[[{"header":{"parameterUnit":"m.s-1","parameterCategory":1,"la1":30.2991,"la2":30.254,"lo1":-89.0895,"lo2":-89.0444,"dy":0.0017,"dx":0.0017,"nx":28,"ny":28,"refTime":"2024-05-30T03:00:00:Z","depth":0,"parameterNumber":2,"parameterNumberName":"U-component_of_WINDS"},"data":[0,0,0,0,0,0,0,0,0,0,0,0,0,0,0,0,0,0,0,0,0,0,0,0,0,0,0,0,0,0,0,0,0,0,0,0,0,0,0,0,0,0,0,0,0,0,0,0,0,0,0,0,0,0,0,0,0,0,-0.9793,-0.9793,0,-0.978,-0.978,-0.978,-0.9688,-0.9685,-0.9683,-0.9681,-0.9673,-0.9675,-0.9677,0,0,0,0,0,0,0,0,0,0,0,0,0,-0.9742,-0.9744,-0.9793,-0.9793,-0.9793,-0.978,-0.978,-0.978,-0.9688,-0.9685,-0.9683,-0.968,-0.9672,-0.9675,-0.9677,0,0,0,0,0,0,0,0,0,0,0,0,0,-0.9751,-0.9744,-0.9793,-0.9745,-0.9741,-0.978,-0.978,-0.978,-0.9689,-0.9685,-0.9682,-0.9679,-0.9672,-0.9674,-0.9677,-0.9763,0,0,-0.9686,-0.9687,0,0,0,0,0,0,0,0,-0.975,-0.9752,-0.9753,-0.9749,-0.9744,-0.9732,-0.9759,-0.9774,-0.969,-0.9709,-0.9681,-0.9677,-0.9696,-0.9696,-0.9701,-0.9762,-0.9762,-0.9686,-0.9688,-0.9689,-0.969,0,0,0,0,0,0,0,-0.975,-0.9753,-0.9788,-0.9753,-0.9747,-0.9726,-0.9723,-0.9761,-0.9722,-0.9707,-0.97,-0.9699,-0.9693,-0.9699,-0.9701,-0.9762,-0.9686,-0.9688,-0.969,-0.9691,-0.989,-0.9893,0,0,0,0,0,0,-0.9755,-0.9753,-0.9788,-0.9788,-0.9739,-0.9729,-0.9726,-0.9739,-0.9721,-0.9715,-0.9702,-0.9695,-0.9696,-0.9697,-0.97,-0.9797,-0.9689,-0.9692,-0.9693,-0.9886,-0.989,-0.9894,0,0,0,0,0,0,-0.9754,-0.9759,-0.9789,-0.9768,-0.977,-0.9734,-0.9749,-0.9741,-0.9747,-0.9717,-0.971,-0.9716,-0.9693,-0.9696,-0.9747,-0.9796,-0.9693,-0.9695,-0.9882,-0.9887,-0.9892,-0.9994,0,0,0,0,0,0,-0.9753,-0.976,-0.9791,-0.977,-0.9772,-0.9836,-0.9752,-0.9743,-0.9751,-0.9742,-0.9728,-0.9723,-0.9691,-0.9743,-0.975,-0.9798,-0.9698,-0.9877,-0.9884,-0.9891,-0.9986,-1.0002,-1.0016,0,0,0,0,0,-0.9752,-0.9822,-0.9793,-0.9798,-0.981,-0.9838,-0.984,-0.98,-0.9756,-0.9787,-0.9768,-0.9723,-0.9789,-0.9749,-0.9756,-0.9805,-0.9874,-0.9882,-0.989,-0.9979,-0.9999,-1.0015,0,0,0,0,0,0,-0.9853,-0.9818,-0.9786,-0.9851,-0.9848,-0.9823,-0.9862,-0.9822,-0.9833,-0.9824,-0.9776,-0.9774,-0.9832,-0.9823,-0.9779,-0.9886,-0.9824,-0.9833,-0.9889,-0.9908,-0.9922,-0.9923,-0.97,0,0,0,0,0,-0.9882,-0.9907,-0.9876,-0.9936,-0.9936,-0.9899,-0.991,-0.9879,-0.9875,-0.9874,-0.9858,-0.9857,-0.9877,-0.9892,-0.9909,-0.9984,-0.9979,-1.0021,-1.0036,-1.0048,-1.0058,-1.0095,-1.0113,-0.992,-0.992,-0.992,0,0,-0.9944,-0.9928,-0.9947,-0.9956,-0.995,-0.9977,-0.9899,-0.9932,-0.9951,-0.9879,-0.9925,-0.9914,-0.991,-0.9972,-0.9999,-0.9967,-1.0109,-1.0059,-1.0069,-1.0071,-1.0105,-1.0123,-1.014,-0.9926,-0.9925,-0.9924,0,0,-1.007,-1.0061,-1.0109,-1.0104,-1.0095,-1.0069,-1.0081,-1.0061,-1.005,-1.0095,-1.0041,-1.0064,-1.0101,-1.0099,-1.0103,-1.0225,-1.0184,-1.0232,-1.031,-1.0347,-1.0363,-1.0376,-1.0419,-1.0435,-1.0242,-1.0242,-1.0242,0,-1.0149,-1.0186,-1.0139,-1.0174,-1.0179,-1.0113,-1.0161,-1.0159,-1.0157,-1.0163,-1.0126,-1.0168,-1.0161,-1.0222,-1.0251,-1.0257,-1.0269,-1.0234,-1.0364,-1.0377,-1.0388,-1.0429,-1.0445,-1.0248,-1.0247,-1.0246,-1.0246,0,-1.0283,-1.0309,-1.0349,-1.0346,-1.0356,-1.0398,-1.0358,-1.0373,-1.0341,-1.032,-1.0366,-1.0354,-1.0366,-1.0378,-1.0349,-1.0434,-1.0415,-1.0372,-1.0309,-1.0413,-1.045,-1.0466,-1.0256,-1.0254,-1.0252,-1.0251,0,0,-1.0474,-1.0442,-1.0458,-1.0454,-1.0438,-1.0458,-1.0497,-1.0506,-1.052,-1.0521,-1.0552,-1.0583,-1.0542,-1.0547,-1.0516,-1.0548,-1.0645,-1.0501,-1.05,-1.0528,-1.0737,-1.0769,-1.0788,-1.0617,-1.062,-1.0622,-1.0737,0,-1.0595,-1.0657,-1.0615,-1.0684,-1.0708,-1.0643,-1.0676,-1.0671,-1.0651,-1.0669,-1.0648,-1.067,-1.0616,-1.0618,-1.0647,-1.0627,-1.0686,-1.0618,-1.0646,-1.0647,-1.0649,-1.0808,-1.0842,-1.0952,-1.0752,-1.0754,-1.0756,0,-1.0744,-1.0748,-1.0819,-1.0795,-1.0804,-1.0835,-1.0839,-1.0857,-1.0848,-1.0832,-1.0835,-1.0795,-1.0832,-1.0769,-1.0818,-1.0773,-1.0782,-1.0773,-1.0777,-1.0778,-1.0708,-1.0813,-1.0986,-1.1003,-1.0779,-1.0777,-1.0775,0,-1.0876,-1.0899,-1.0943,-1.0943,-1.0917,-1.094,-1.0931,-1.0918,-1.0926,-1.0931,-1.0935,-1.0945,-1.0951,-1.0959,-1.0923,-1.088,-1.0977,-1.0911,-1.0965,-1.0966,-1.0989,-1.0988,-1.1165,-1.0995,-1.0995,-1.0994,-1.0994,0,-1.1015,-1.1061,-1.1002,-1.103,-1.1079,-1.103,-1.108,-1.1064,-1.1054,-1.1078,-1.1024,-1.1048,-1.0998,-1.1017,-1.0989,-1.1034,-1.1037,-1.1025,-1.1017,-1.103,-1.1031,-1.1035,-1.1027,-1.0999,-1.0998,-1.0997,-1.0996,0,-1.1171,-1.1133,-1.1177,-1.1148,-1.1141,-1.1179,-1.1154,-1.1179,-1.1155,-1.1186,-1.119,-1.1153,-1.1172,-1.1136,-1.1152,-1.1133,-1.1196,-1.1176,-1.1198,-1.1192,-1.1247,-1.1243,-1.1434,-1.1456,-1.1272,-1.1274,-1.1275,0,-1.1262,-1.1295,-1.1268,-1.1279,-1.1272,-1.1291,-1.1297,-1.125,-1.1259,-1.1251,-1.1277,-1.1291,-1.13,-1.1334,-1.1309,-1.132,-1.13,-1.1366,-1.1302,-1.1313,-1.13,-1.1299,-1.1301,-1.138,-1.1382,-1.1384,-1.1385,0,-1.1427,-1.1406,-1.1417,-1.1421,-1.143,-1.1431,-1.1429,-1.1441,-1.1391,-1.1405,-1.1422,-1.1429,-1.1442,-1.1457,-1.1462,-1.1453,-1.1412,-1.1405,-1.1418,-1.1432,-1.1443,-1.1437,-1.1234,-1.1402,-1.14,-1.1399,-1.1398,-1.1397,-1.1553,-1.1579,-1.1563,-1.1576,-1.1569,-1.1567,-1.1588,-1.1565,-1.1578,-1.1584,-1.1556,-1.158,-1.1569,-1.157,-1.1566,-1.1584,-1.1555,-1.1574,-1.1579,-1.1584,-1.1593,-1.144,-1.1585,-1.1585,-1.1584,-1.1584,-1.1583,0,-1.1715,-1.1701,-1.1713,-1.171,-1.1721,-1.1677,-1.1672,-1.1684,-1.1705,-1.1697,-1.1706,-1.1725,-1.1739,-1.1714,-1.1723,-1.1743,-1.1724,-1.1747,-1.1745,-1.1744,-1.1619,-1.1606,-1.1762,-1.1762,-1.1762,-1.1762,-1.1762,-1.1762,-1.1801,-1.1841,-1.1818,-1.1854,-1.184,-1.1861,-1.1861,-1.1859,-1.1853,-1.1876,-1.1886,-1.1869,-1.1854,-1.1861,-1.1872,-1.1864,-1.187,-1.19,-1.1886,-1.177,-1.1753,-1.1736,-1.1724,-1.1902,-1.1902,-1.2009,-1.201,-1.2011]},{"header":{"parameterUnit":"m.s-1","parameterCategory":1,"la1":30.2991,"la2":30.254,"lo1":-89.0895,"lo2":-89.0444,"dy":0.0017,"dx":0.0017,"nx":28,"ny":28,"refTime":"2024-05-30T03:00:00:Z","depth":0,"parameterNumber":3,"parameterNumberName":"V-component_of_WINDS"},"data":[0,0,0,0,0,0,0,0,0,0,0,0,0,0,0,0,0,0,0,0,0,0,0,0,0,0,0,0,0,0,0,0,0,0,0,0,0,0,0,0,0,0,0,0,0,0,0,0,0,0,0,0,0,0,0,0,0,0,0.3151,0.3151,0,0.3129,0.3129,0.3129,0.3051,0.305,0.3048,0.3046,0.303,0.3031,0.3032,0,0,0,0,0,0,0,0,0,0,0,0,0,0.3131,0.3132,0.3151,0.3151,0.315,0.3129,0.3129,0.3129,0.3052,0.305,0.3047,0.3045,0.3029,0.3031,0.3032,0,0,0,0,0,0,0,0,0,0,0,0,0,0.3128,0.3132,0.3151,0.3109,0.3105,0.3129,0.3129,0.3129,0.3052,0.3049,0.3047,0.3044,0.3029,0.303,0.3032,0.3096,0,0,0.3038,0.3039,0,0,0,0,0,0,0,0,0.3128,0.3129,0.3116,0.3112,0.3108,0.309,0.3116,0.3118,0.3053,0.3073,0.3046,0.3043,0.3052,0.3052,0.3054,0.3096,0.3095,0.3038,0.3039,0.304,0.304,0,0,0,0,0,0,0,0.3128,0.3129,0.3142,0.3116,0.3111,0.3093,0.309,0.3116,0.3078,0.3071,0.3065,0.3063,0.305,0.3052,0.3053,0.3095,0.3038,0.3039,0.3041,0.3041,0.319,0.3192,0,0,0,0,0,0,0.3134,0.313,0.3143,0.3142,0.3111,0.3096,0.3092,0.3099,0.3077,0.3071,0.3065,0.306,0.3051,0.3051,0.3052,0.3127,0.304,0.3041,0.3043,0.3187,0.319,0.3193,0,0,0,0,0,0,0.3134,0.3136,0.3144,0.3134,0.3134,0.3099,0.3107,0.31,0.3102,0.3073,0.3067,0.3075,0.3048,0.305,0.3086,0.3125,0.3042,0.3044,0.3183,0.3188,0.3192,0.3277,0,0,0,0,0,0,0.3134,0.3136,0.3159,0.3135,0.3135,0.3177,0.3109,0.3101,0.3105,0.3097,0.308,0.3075,0.3046,0.3084,0.3088,0.3126,0.3045,0.318,0.3185,0.3191,0.3271,0.3284,0.3295,0,0,0,0,0,0.3133,0.3185,0.3161,0.3163,0.3162,0.3179,0.3179,0.3144,0.3108,0.3132,0.3113,0.3076,0.312,0.3088,0.3092,0.3132,0.3177,0.3184,0.319,0.3265,0.3281,0.3295,0,0,0,0,0,0,0.3216,0.3181,0.3154,0.3199,0.3192,0.3166,0.3195,0.3162,0.3167,0.3159,0.3117,0.3114,0.3157,0.3147,0.3113,0.3193,0.3142,0.315,0.3198,0.3213,0.3225,0.3227,0.3047,0,0,0,0,0,0.3239,0.3254,0.3223,0.3266,0.3264,0.323,0.3236,0.3209,0.3202,0.3199,0.3183,0.3179,0.3192,0.3202,0.3212,0.3268,0.3265,0.3298,0.331,0.332,0.3328,0.3359,0.3373,0.3215,0.3214,0.3214,0,0,0.3288,0.3271,0.3283,0.3283,0.3274,0.3293,0.3229,0.3251,0.3265,0.3203,0.3236,0.3225,0.3217,0.3264,0.3284,0.3258,0.3371,0.3328,0.3336,0.3339,0.3367,0.3382,0.3395,0.3219,0.3218,0.3217,0,0,0.3387,0.3374,0.3409,0.3402,0.339,0.3367,0.3375,0.3354,0.3343,0.3375,0.333,0.3347,0.337,0.3366,0.3368,0.3465,0.3432,0.347,0.3535,0.3565,0.3578,0.3589,0.3625,0.3639,0.3477,0.3478,0.3478,0,0.345,0.3474,0.3432,0.3457,0.3459,0.3402,0.3438,0.3434,0.3427,0.343,0.34,0.3428,0.3419,0.3465,0.3489,0.3491,0.3502,0.3473,0.3579,0.3589,0.3599,0.3634,0.3648,0.3482,0.3482,0.3481,0.3481,0,0.3553,0.357,0.36,0.3593,0.3598,0.3629,0.3593,0.3604,0.3576,0.3557,0.3592,0.3578,0.3586,0.3594,0.3568,0.3637,0.3622,0.3586,0.3534,0.362,0.3652,0.3665,0.3489,0.3488,0.3486,0.3485,0,0,0.3705,0.3673,0.3685,0.3681,0.3663,0.3677,0.3706,0.3711,0.3722,0.3719,0.3743,0.3764,0.373,0.3732,0.3705,0.3732,0.3812,0.3693,0.3692,0.3717,0.389,0.3919,0.3935,0.3789,0.3791,0.3793,0.3892,0,0.38,0.3846,0.3809,0.3862,0.3879,0.3825,0.385,0.3843,0.3826,0.3839,0.382,0.3836,0.379,0.3791,0.3815,0.3798,0.3847,0.379,0.3814,0.3815,0.382,0.3951,0.3981,0.4075,0.3904,0.3906,0.3907,0,0.3918,0.3918,0.3973,0.3952,0.3958,0.3981,0.3983,0.3995,0.3987,0.3973,0.3975,0.3941,0.3969,0.3917,0.3957,0.3919,0.3927,0.392,0.3923,0.3926,0.3868,0.396,0.4104,0.4119,0.3926,0.3925,0.3923,0,0.4026,0.404,0.4075,0.4073,0.4049,0.4067,0.4058,0.4047,0.4052,0.4055,0.4059,0.4065,0.4069,0.4076,0.4046,0.401,0.4091,0.4035,0.4082,0.4083,0.4104,0.4103,0.4254,0.4105,0.4105,0.4105,0.4104,0,0.4138,0.4174,0.4123,0.4145,0.4184,0.4142,0.4183,0.4168,0.4159,0.4178,0.4132,0.4152,0.4109,0.4125,0.4101,0.414,0.4142,0.4133,0.4127,0.4138,0.414,0.4145,0.4138,0.4108,0.4107,0.4107,0.4106,0,0.4266,0.4233,0.4268,0.4241,0.4236,0.4266,0.4245,0.4265,0.4244,0.4269,0.4273,0.4241,0.4258,0.4227,0.424,0.4224,0.4279,0.4261,0.4281,0.4277,0.4326,0.4323,0.4487,0.4507,0.4344,0.4345,0.4347,0,0.4341,0.4367,0.4343,0.4352,0.4345,0.436,0.4365,0.4324,0.4332,0.4324,0.4346,0.4358,0.4366,0.4395,0.4375,0.4385,0.4369,0.4425,0.437,0.4382,0.4373,0.4372,0.4376,0.4438,0.444,0.4441,0.4442,0,0.4478,0.446,0.4468,0.4471,0.4478,0.4479,0.4476,0.4487,0.4444,0.4455,0.447,0.4476,0.4488,0.4502,0.4507,0.45,0.4466,0.4459,0.4471,0.4485,0.4496,0.4493,0.4315,0.4457,0.4455,0.4454,0.4453,0.4453,0.4583,0.4604,0.4591,0.4602,0.4595,0.4594,0.4612,0.4592,0.4604,0.4609,0.4585,0.4606,0.4598,0.4601,0.4598,0.4615,0.459,0.4607,0.4612,0.4617,0.4626,0.4491,0.4616,0.4615,0.4615,0.4614,0.4614,0,0.4719,0.4707,0.4718,0.4715,0.4725,0.4687,0.4683,0.4694,0.4713,0.4707,0.4715,0.4733,0.4746,0.4726,0.4736,0.4754,0.4739,0.4759,0.4758,0.4758,0.4646,0.4636,0.4771,0.4771,0.4771,0.4771,0.4771,0.4771,0.4792,0.4826,0.4807,0.4838,0.4827,0.4846,0.4847,0.4846,0.4841,0.4863,0.4873,0.4858,0.4848,0.4856,0.4867,0.4861,0.4869,0.4895,0.4883,0.478,0.4765,0.4751,0.4741,0.4896,0.4896,0.4993,0.4994,0.4995]}]]